QPF
0.00 0.00 0.00 0.00 0.00 0.00 0.00 0.00 0.00 0.00 0.00 0.00 0.00 0.00 0.00 0.00 0.00 0.00 0.00 0.00 0.00 0.00 0.00 0.00 0.00 0.00 0.00 0.00 0.00 0.00 0.00 0.00 0.00 0.00 0.00 0.00 0.00 0.00 0.00 0.00 0.00 0.01 0.01
0.00 0.00 0.00 0.00 0.00 0.00 0.00 0.00 0.00 0.00 0.00 0.00 0.00 0.00 0.00 0.00 0.00 0.00 0.00 0.00 0.00 0.00 0.00 0.00 0.00 0.00 0.00 0.00 0.00 0.00 0.00 0.00 0.00 0.00 0.00 0.00 0.00 0.00 0.00 0.00 0.01 0.01 0.01
0.00 0.00 0.00 0.00 0.00 0.00 0.00 0.00 0.00 0.00 0.00 0.00 0.00 0.00 0.00 0.00 0.00 0.00 0.00 0.00 0.00 0.00 0.00 0.00 0.00 0.00 0.00 0.00 0.00 0.00 0.00 0.00 0.00 0.00 0.00 0.00 0.00 0.00 0.00 0.01 0.01 0.01 0.01
0.00 0.00 0.00 0.00 0.00 0.00 0.00 0.00 0.00 0.00 0.00 0.00 0.00 0.00 0.00 0.00 0.00 0.00 0.00 0.00 0.00 0.00 0.00 0.00 0.00 0.00 0.00 0.00 0.00 0.00 0.00 0.00 0.00 0.00 0.00 0.00 0.00 0.00 0.00 0.01 0.01 0.01 0.01
0.00 0.00 0.00 0.00 0.00 0.00 0.00 0.00 0.00 0.00 0.00 0.00 0.00 0.00 0.00 0.00 0.00 0.00 0.00 0.00 0.00 0.00 0.00 0.00 0.00 0.00 0.00 0.00 0.00 0.00 0.00 0.00 0.00 0.00 0.00 0.00 0.00 0.00 0.01 0.01 0.01 0.01 0.01
0.00 0.00 0.00 0.00 0.00 0.00 0.00 0.00 0.00 0.00 0.00 0.00 0.00 0.00 0.00 0.00 0.00 0.00 0.00 0.00 0.00 0.00 0.00 0.00 0.00 0.00 0.00 0.00 0.00 0.00 0.00 0.00 0.00 0.00 0.00 0.00 0.00 0.00 0.01 0.01 0.01 0.01 0.01
0.00 0.00 0.00 0.00 0.00 0.00 0.00 0.00 0.00 0.00 0.00 0.00 0.00 0.00 0.00 0.00 0.00 0.00 0.00 0.00 0.00 0.00 0.00 0.00 0.00 0.00 0.00 0.00 0.00 0.00 0.00 0.00 0.00 0.00 0.00 0.00 0.00 0.00 0.01 0.01 0.01 0.01 0.02
0.00 0.00 0.00 0.00 0.00 0.00 0.00 0.00 0.00 0.00 0.00 0.00 0.00 0.00 0.00 0.00 0.00 0.00 0.00 0.00 0.00 0.00 0.00 0.00 0.00 0.00 0.00 0.00 0.00 0.00 0.00 0.00 0.00 0.00 0.00 0.00 0.00 0.00 0.01 0.01 0.01 0.02 0.02
0.00 0.00 0.00 0.00 0.00 0.00 0.00 0.00 0.00 0.00 0.00 0.00 0.00 0.00 0.00 0.00 0.00 0.00 0.00 0.00 0.00 0.00 0.00 0.00 0.00 0.00 0.00 0.00 0.00 0.00 0.00 0.00 0.00 0.00 0.00 0.00 0.00 0.00 0.01 0.01 0.01 0.02 0.02
0.00 0.00 0.00 0.00 0.00 0.00 0.00 0.00 0.00 0.00 0.00 0.00 0.00 0.00 0.00 0.00 0.00 0.00 0.00 0.00 0.00 0.00 0.00 0.00 0.00 0.00 0.00 0.00 0.00 0.00 0.00 0.00 0.00 0.00 0.00 0.00 0.00 0.00 0.01 0.01 0.01 0.02 0.02
0.00 0.00 0.00 0.00 0.00 0.00 0.00 0.00 0.00 0.00 0.00 0.00 0.00 0.00 0.00 0.00 0.00 0.00 0.00 0.00 0.00 0.00 0.00 0.00 0.00 0.00 0.00 0.00 0.00 0.00 0.00 0.00 0.00 0.00 0.00 0.00 0.00 0.00 0.01 0.01 0.01 0.01 0.02
0.00 0.00 0.00 0.00 0.00 0.00 0.00 0.00 0.00 0.00 0.00 0.00 0.00 0.00 0.00 0.00 0.00 0.00 0.00 0.00 0.00 0.00 0.00 0.00 0.00 0.00 0.00 0.00 0.00 0.00 0.00 0.00 0.00 0.00 0.00 0.00 0.00 0.00 0.00 0.01 0.01 0.01 0.02
0.00 0.00 0.00 0.00 0.00 0.00 0.00 0.00 0.00 0.00 0.00 0.00 0.00 0.00 0.00 0.00 0.00 0.01 0.01 0.01 0.01 0.00 0.00 0.00 0.00 0.00 0.00 0.00 0.00 0.00 0.00 0.00 0.00 0.00 0.00 0.00 0.00 0.00 0.00 0.01 0.01 0.01 0.01
0.00 0.00 0.00 0.00 0.00 0.00 0.00 0.00 0.00 0.00 0.00 0.00 0.00 0.00 0.00 0.01 0.01 0.01 0.01 0.01 0.01 0.00 0.00 0.00 0.00 0.00 0.00 0.00 0.00 0.00 0.00 0.00 0.00 0.00 0.00 0.00 0.00 0.00 0.00 0.00 0.01 0.01 0.01
0.01 0.00 0.00 0.00 0.00 0.00 0.00 0.00 0.00 0.00 0.00 0.00 0.00 0.00 0.01 0.01 0.01 0.01 0.01 0.00 0.00 0.00 0.00 0.00 0.00 0.00 0.00 0.00 0.00 0.00 0.00 0.00 0.00 0.00 0.00 0.00 0.00 0.00 0.00 0.00 0.00 0.01 0.01
0.01 0.00 0.00 0.00 0.00 0.00 0.00 0.00 0.00 0.00 0.01 0.01 0.01 0.01 0.01 0.01 0.01 0.00 0.00 0.00 0.00 0.00 0.00 0.00 0.00 0.00 0.00 0.00 0.00 0.00 0.00 0.00 0.00 0.00 0.00 0.00 0.00 0.00 0.00 0.00 0.00 0.01 0.01
0.02 0.01 0.00 0.00 0.00 0.00 0.00 0.00 0.01 0.01 0.01 0.01 0.01 0.01 0.01 0.00 0.00 0.00 0.00 0.00 0.00 0.00 0.00 0.00 0.00 0.00 0.00 0.00 0.00 0.00 0.00 0.00 0.00 0.00 0.00 0.00 0.00 0.00 0.00 0.00 0.00 0.01 0.01
0.03 0.01 0.01 0.00 0.00 0.00 0.00 0.00 0.01 0.01 0.01 0.01 0.01 0.01 0.00 0.00 0.00 0.00 0.00 0.00 0.00 0.00 0.00 0.01 0.01 0.00 0.00 0.00 0.00 0.00 0.00 0.00 0.00 0.00 0.00 0.00 0.00 0.00 0.00 0.00 0.00 0.01 0.01
0.05 0.04 0.01 0.00 0.00 0.00 0.00 0.00 0.00 0.01 0.01 0.01 0.00 0.00 0.00 0.00 0.00 0.00 0.00 0.00 0.01 0.01 0.01 0.01 0.01 0.00 0.00 0.00 0.00 0.00 0.00 0.00 0.00 0.00 0.00 0.00 0.00 0.00 0.00 0.00 0.00 0.01 0.01
0.03 0.05 0.03 0.01 0.00 0.00 0.00 0.00 0.00 0.00 0.00 0.00 0.00 0.00 0.00 0.00 0.01 0.01 0.01 0.01 0.00 0.00 0.00 0.01 0.01 0.01 0.01 0.01 0.00 0.00 0.00 0.00 0.00 0.00 0.00 0.00 0.00 0.00 0.00 0.00 0.00 0.00 0.01
0.03 0.02 0.03 0.02 0.01 0.00 0.00 0.00 0.00 0.00 0.00 0.00 0.00 0.01 0.01 0.01 0.01 0.01 0.01 0.00 0.00 0.01 0.01 0.01 0.01 0.01 0.01 0.01 0.01 0.01 0.00 0.00 0.00 0.00 0.00 0.00 0.00 0.00 0.00 0.00 0.00 0.00 0.01
0.04 0.03 0.02 0.02 0.01 0.00 0.00 0.00 0.00 0.00 0.01 0.01 0.01 0.01 0.01 0.02 0.01 0.01 0.01 0.01 0.01 0.01 0.01 0.01 0.01 0.01 0.01 0.01 0.01 0.00 0.00 0.00 0.00 0.00 0.00 0.00 0.00 0.00 0.00 0.00 0.00 0.00 0.01
0.03 0.03 0.03 0.03 0.02 0.01 0.01 0.01 0.01 0.01 0.01 0.01 0.01 0.01 0.01 0.01 0.01 0.01 0.01 0.01 0.01 0.01 0.02 0.02 0.01 0.01 0.01 0.01 0.00 0.00 0.00 0.00 0.00 0.00 0.00 0.00 0.00 0.00 0.00 0.00 0.00 0.00 0.00
0.03 0.02 0.01 0.02 0.02 0.02 0.02 0.02 0.02 0.01 0.01 0.01 0.01 0.01 0.01 0.00 0.01 0.01 0.01 0.01 0.01 0.01 0.02 0.01 0.01 0.01 0.01 0.00 0.00 0.00 0.00 0.00 0.00 0.00 0.00 0.00 0.00 0.00 0.00 0.00 0.00 0.00 0.00
0.02 0.02 0.02 0.01 0.01 0.01 0.02 0.02 0.03 0.02 0.01 0.01 0.01 0.01 0.01 0.01 0.01 0.02 0.01 0.01 0.01 0.01 0.01 0.01 0.01 0.01 0.00 0.00 0.00 0.00 0.00 0.00 0.00 0.00 0.00 0.00 0.00 0.00 0.00 0.00 0.00 0.00 0.00
0.01 0.02 0.02 0.02 0.01 0.01 0.01 0.02 0.02 0.02 0.01 0.01 0.01 0.01 0.02 0.02 0.02 0.02 0.01 0.01 0.01 0.01 0.01 0.01 0.01 0.01 0.00 0.00 0.00 0.00 0.00 0.00 0.01 0.00 0.00 0.00 0.00 0.00 0.00 0.00 0.00 0.00 0.00
MSLP
1015.70 1016.21 1016.62 1016.97 1017.28 1017.59 1017.89 1018.22 1018.56 1018.91 1019.25 1019.54 1019.79 1019.96 1020.07 1020.13 1020.14 1020.13 1020.13 1020.13 1020.16 1020.21 1020.27 1020.34 1020.40 1020.44 1020.46 1020.45 1020.44 1020.42 1020.39 1020.39 1020.39 1020.41 1020.43 1020.44 1020.43 1020.38 1020.29 1020.15 1019.98 1019.79 1019.59
1015.66 1016.17 1016.61 1016.99 1017.34 1017.68 1018.02 1018.39 1018.76 1019.14 1019.50 1019.81 1020.07 1020.26 1020.37 1020.42 1020.42 1020.40 1020.38 1020.38 1020.40 1020.45 1020.52 1020.60 1020.67 1020.72 1020.75 1020.74 1020.72 1020.68 1020.65 1020.63 1020.63 1020.65 1020.67 1020.69 1020.69 1020.65 1020.56 1020.42 1020.24 1020.04 1019.83
1015.51 1016.04 1016.51 1016.94 1017.35 1017.74 1018.14 1018.55 1018.96 1019.36 1019.75 1020.08 1020.35 1020.55 1020.66 1020.71 1020.71 1020.68 1020.65 1020.64 1020.66 1020.71 1020.78 1020.87 1020.96 1021.02 1021.05 1021.05 1021.02 1020.97 1020.92 1020.88 1020.86 1020.86 1020.86 1020.87 1020.85 1020.80 1020.71 1020.56 1020.38 1020.17 1019.95
1015.29 1015.83 1016.35 1016.85 1017.32 1017.78 1018.23 1018.69 1019.13 1019.56 1019.96 1020.31 1020.59 1020.79 1020.92 1020.98 1020.98 1020.95 1020.92 1020.90 1020.91 1020.95 1021.03 1021.12 1021.21 1021.28 1021.32 1021.32 1021.28 1021.22 1021.14 1021.07 1021.02 1020.98 1020.95 1020.93 1020.89 1020.82 1020.71 1020.56 1020.37 1020.16 1019.95
1015.00 1015.58 1016.15 1016.71 1017.25 1017.77 1018.28 1018.77 1019.25 1019.69 1020.09 1020.45 1020.74 1020.96 1021.11 1021.19 1021.21 1021.19 1021.16 1021.13 1021.13 1021.16 1021.22 1021.30 1021.39 1021.45 1021.49 1021.48 1021.44 1021.36 1021.27 1021.16 1021.07 1020.99 1020.92 1020.85 1020.78 1020.69 1020.57 1020.42 1020.24 1020.04 1019.83
1014.65 1015.27 1015.89 1016.51 1017.11 1017.70 1018.25 1018.77 1019.25 1019.70 1020.11 1020.47 1020.78 1021.03 1021.21 1021.32 1021.37 1021.37 1021.35 1021.32 1021.31 1021.31 1021.34 1021.39 1021.45 1021.49 1021.52 1021.51 1021.45 1021.36 1021.25 1021.11 1020.98 1020.86 1020.75 1020.65 1020.55 1020.44 1020.31 1020.17 1020.00 1019.81 1019.61
1014.24 1014.89 1015.55 1016.23 1016.88 1017.51 1018.09 1018.63 1019.12 1019.57 1019.98 1020.35 1020.68 1020.96 1021.19 1021.35 1021.45 1021.49 1021.49 1021.46 1021.42 1021.38 1021.37 1021.37 1021.38 1021.39 1021.39 1021.36 1021.30 1021.20 1021.08 1020.93 1020.77 1020.62 1020.48 1020.35 1020.23 1020.11 1019.98 1019.84 1019.69 1019.52 1019.34
1013.76 1014.43 1015.13 1015.84 1016.53 1017.19 1017.79 1018.34 1018.83 1019.27 1019.69 1020.08 1020.44 1020.77 1021.06 1021.29 1021.45 1021.53 1021.55 1021.52 1021.46 1021.38 1021.31 1021.24 1021.20 1021.16 1021.13 1021.08 1021.01 1020.91 1020.79 1020.64 1020.48 1020.31 1020.15 1020.00 1019.86 1019.74 1019.61 1019.48 1019.34 1019.20 1019.04
1013.17 1013.86 1014.58 1015.31 1016.03 1016.71 1017.33 1017.88 1018.38 1018.83 1019.26 1019.68 1020.08 1020.47 1020.83 1021.13 1021.36 1021.50 1021.55 1021.52 1021.43 1021.31 1021.17 1021.04 1020.93 1020.84 1020.77 1020.70 1020.63 1020.54 1020.42 1020.29 1020.13 1019.97 1019.80 1019.65 1019.50 1019.37 1019.24 1019.12 1018.99 1018.86 1018.71
1012.47 1013.17 1013.91 1014.66 1015.39 1016.08 1016.72 1017.28 1017.79 1018.27 1018.72 1019.18 1019.63 1020.08 1020.51 1020.88 1021.18 1021.38 1021.46 1021.45 1021.34 1021.18 1020.99 1020.80 1020.63 1020.48 1020.37 1020.29 1020.21 1020.13 1020.03 1019.92 1019.78 1019.63 1019.47 1019.31 1019.16 1019.02 1018.88 1018.75 1018.63 1018.50 1018.36
1011.67 1012.38 1013.12 1013.88 1014.63 1015.35 1016.00 1016.59 1017.12 1017.62 1018.11 1018.61 1019.12 1019.63 1020.12 1020.56 1020.92 1021.17 1021.30 1021.30 1021.19 1021.00 1020.77 1020.53 1020.31 1020.13 1019.99 1019.88 1019.80 1019.73 1019.66 1019.56 1019.44 1019.31 1019.15 1018.99 1018.83 1018.67 1018.52 1018.37 1018.23 1018.09 1017.95
1010.79 1011.51 1012.26 1013.03 1013.80 1014.53 1015.21 1015.83 1016.40 1016.94 1017.47 1018.01 1018.56 1019.12 1019.66 1020.16 1020.57 1020.87 1021.03 1021.05 1020.96 1020.77 1020.52 1020.26 1020.01 1019.80 1019.64 1019.52 1019.43 1019.37 1019.30 1019.22 1019.12 1018.99 1018.83 1018.66 1018.48 1018.30 1018.12 1017.95 1017.79 1017.63 1017.47
1009.87 1010.60 1011.37 1012.15 1012.94 1013.70 1014.41 1015.06 1015.67 1016.25 1016.81 1017.38 1017.97 1018.55 1019.13 1019.66 1020.11 1020.44 1020.64 1020.70 1020.64 1020.47 1020.24 1019.98 1019.72 1019.50 1019.33 1019.20 1019.11 1019.04 1018.97 1018.89 1018.78 1018.65 1018.48 1018.30 1018.10 1017.89 1017.69 1017.49 1017.30 1017.11 1016.93
1008.95 1009.71 1010.49 1011.29 1012.10 1012.88 1013.62 1014.31 1014.95 1015.55 1016.15 1016.74 1017.33 1017.93 1018.51 1019.05 1019.52 1019.88 1020.12 1020.23 1020.21 1020.09 1019.90 1019.67 1019.44 1019.23 1019.05 1018.92 1018.81 1018.73 1018.64 1018.55 1018.43 1018.28 1018.10 1017.90 1017.68 1017.44 1017.21 1016.99 1016.77 1016.56 1016.36
1008.07 1008.85 1009.65 1010.47 1011.29 1012.09 1012.85 1013.57 1014.23 1014.86 1015.46 1016.06 1016.65 1017.23 1017.80 1018.33 1018.80 1019.19 1019.46 1019.62 1019.67 1019.62 1019.49 1019.33 1019.14 1018.96 1018.80 1018.66 1018.54 1018.44 1018.33 1018.21 1018.07 1017.90 1017.70 1017.48 1017.24 1016.99 1016.75 1016.50 1016.27 1016.04 1015.83
1007.25 1008.06 1008.88 1009.71 1010.54 1011.35 1012.12 1012.85 1013.52 1014.15 1014.75 1015.33 1015.90 1016.45 1016.99 1017.50 1017.97 1018.36 1018.67 1018.89 1019.02 1019.06 1019.03 1018.95 1018.83 1018.70 1018.57 1018.44 1018.31 1018.18 1018.04 1017.90 1017.73 1017.54 1017.33 1017.10 1016.85 1016.60 1016.35 1016.10 1015.86 1015.63 1015.40
1006.48 1007.33 1008.17 1009.00 1009.83 1010.63 1011.40 1012.12 1012.79 1013.42 1014.00 1014.55 1015.08 1015.60 1016.10 1016.59 1017.04 1017.45 1017.80 1018.09 1018.31 1018.45 1018.53 1018.55 1018.53 1018.46 1018.37 1018.26 1018.13 1017.99 1017.83 1017.66 1017.47 1017.27 1017.06 1016.83 1016.59 1016.35 1016.10 1015.86 1015.62 1015.39 1015.15
1005.75 1006.63 1007.49 1008.32 1009.14 1009.93 1010.68 1011.39 1012.04 1012.64 1013.20 1013.73 1014.22 1014.71 1015.18 1015.63 1016.08 1016.51 1016.91 1017.27 1017.58 1017.84 1018.04 1018.17 1018.25 1018.27 1018.23 1018.16 1018.05 1017.90 1017.74 1017.56 1017.36 1017.16 1016.95 1016.73 1016.51 1016.28 1016.05 1015.82 1015.58 1015.34 1015.10
1005.04 1005.95 1006.82 1007.65 1008.45 1009.22 1009.94 1010.62 1011.26 1011.84 1012.38 1012.88 1013.35 1013.81 1014.26 1014.71 1015.16 1015.61 1016.06 1016.50 1016.91 1017.28 1017.60 1017.85 1018.04 1018.15 1018.19 1018.17 1018.09 1017.96 1017.81 1017.63 1017.44 1017.25 1017.05 1016.86 1016.65 1016.44 1016.22 1015.99 1015.74 1015.49 1015.22
1004.33 1005.27 1006.15 1006.97 1007.75 1008.49 1009.19 1009.84 1010.46 1011.03 1011.55 1012.04 1012.51 1012.96 1013.41 1013.86 1014.33 1014.82 1015.33 1015.84 1016.34 1016.82 1017.26 1017.64 1017.93 1018.14 1018.27 1018.31 1018.27 1018.18 1018.05 1017.89 1017.72 1017.55 1017.37 1017.19 1016.99 1016.79 1016.56 1016.32 1016.05 1015.77 1015.46
1003.61 1004.57 1005.47 1006.29 1007.06 1007.77 1008.44 1009.08 1009.68 1010.24 1010.77 1011.27 1011.75 1012.23 1012.69 1013.18 1013.68 1014.21 1014.77 1015.36 1015.95 1016.52 1017.07 1017.55 1017.95 1018.26 1018.46 1018.57 1018.60 1018.55 1018.46 1018.33 1018.18 1018.02 1017.85 1017.68 1017.48 1017.27 1017.02 1016.74 1016.43 1016.10 1015.73
1002.88 1003.88 1004.79 1005.61 1006.37 1007.07 1007.73 1008.35 1008.95 1009.53 1010.08 1010.62 1011.14 1011.65 1012.16 1012.69 1013.24 1013.82 1014.44 1015.09 1015.75 1016.41 1017.04 1017.61 1018.10 1018.49 1018.78 1018.95 1019.04 1019.04 1018.98 1018.88 1018.75 1018.60 1018.43 1018.25 1018.03 1017.78 1017.50 1017.17 1016.80 1016.39 1015.96
1002.16 1003.20 1004.13 1004.97 1005.73 1006.43 1007.08 1007.71 1008.33 1008.93 1009.53 1010.12 1010.70 1011.28 1011.85 1012.44 1013.05 1013.69 1014.36 1015.06 1015.77 1016.49 1017.18 1017.82 1018.38 1018.83 1019.18 1019.41 1019.55 1019.59 1019.56 1019.48 1019.36 1019.21 1019.03 1018.81 1018.56 1018.26 1017.91 1017.51 1017.07 1016.60 1016.10
1001.48 1002.56 1003.53 1004.39 1005.16 1005.87 1006.54 1007.19 1007.84 1008.49 1009.15 1009.81 1010.47 1011.13 1011.79 1012.45 1013.12 1013.81 1014.53 1015.26 1016.02 1016.77 1017.49 1018.16 1018.76 1019.26 1019.64 1019.92 1020.09 1020.16 1020.15 1020.07 1019.95 1019.77 1019.56 1019.30 1018.99 1018.63 1018.21 1017.74 1017.23 1016.68 1016.12
1000.86 1001.99 1003.00 1003.89 1004.69 1005.43 1006.12 1006.81 1007.51 1008.22 1008.96 1009.71 1010.47 1011.22 1011.96 1012.70 1013.43 1014.17 1014.92 1015.69 1016.45 1017.21 1017.94 1018.62 1019.23 1019.74 1020.15 1020.44 1020.62 1020.70 1020.69 1020.61 1020.46 1020.26 1020.00 1019.69 1019.32 1018.88 1018.39 1017.85 1017.27 1016.67 1016.06
1000.32 1001.50 1002.55 1003.49 1004.33 1005.10 1005.84 1006.58 1007.34 1008.13 1008.96 1009.80 1010.66 1011.51 1012.34 1013.16 1013.96 1014.74 1015.52 1016.29 1017.05 1017.80 1018.51 1019.18 1019.77 1020.27 1020.67 1020.95 1021.13 1021.20 1021.18 1021.08 1020.90 1020.66 1020.35 1019.98 1019.54 1019.05 1018.49 1017.89 1017.25 1016.61 1015.97
Thickness
5680 5679 5678 5677 5675 5674 5673 5670 5668 5667 5665 5663 5661 5658 5656 5654 5652 5650 5648 5646 5643 5640 5637 5634 5630 5626 5622 5618 5614 5610 5606 5602 5599 5595 5592 5588 5585 5582 5579 5576 5573 5571 5569
5676 5674 5672 5671 5670 5669 5667 5665 5663 5661 5659 5657 5655 5653 5651 5648 5646 5644 5641 5639 5637 5634 5631 5628 5624 5620 5616 5612 5608 5604 5600 5596 5592 5588 5585 5581 5578 5574 5571 5568 5565 5563 5561
5671 5670 5668 5666 5665 5663 5662 5660 5658 5656 5653 5651 5649 5647 5645 5643 5640 5638 5635 5633 5630 5627 5624 5621 5618 5614 5610 5606 5602 5597 5593 5589 5585 5581 5578 5574 5570 5567 5564 5561 5558 5555 5552
5667 5666 5664 5662 5660 5659 5657 5654 5652 5649 5647 5645 5643 5641 5639 5637 5635 5632 5630 5627 5624 5621 5618 5615 5611 5608 5604 5600 5596 5591 5587 5583 5579 5575 5571 5567 5563 5560 5556 5553 5550 5547 5544
5664 5662 5660 5658 5656 5654 5652 5650 5647 5645 5641 5639 5637 5635 5633 5631 5629 5627 5624 5622 5619 5615 5612 5608 5605 5601 5597 5593 5589 5585 5581 5577 5573 5568 5564 5560 5556 5552 5549 5545 5542 5539 5536
5660 5658 5656 5655 5652 5650 5647 5645 5642 5639 5636 5634 5631 5628 5626 5625 5624 5622 5619 5616 5613 5610 5606 5603 5599 5595 5590 5586 5582 5578 5574 5570 5566 5562 5558 5553 5549 5545 5541 5538 5534 5530 5527
5657 5655 5653 5651 5649 5647 5644 5641 5637 5634 5630 5628 5624 5621 5621 5620 5618 5616 5614 5611 5608 5604 5601 5597 5593 5589 5584 5580 5576 5571 5567 5563 5559 5555 5551 5547 5542 5538 5534 5530 5526 5522 5518
5654 5652 5651 5649 5646 5643 5640 5637 5634 5629 5626 5624 5620 5616 5614 5613 5613 5611 5608 5606 5603 5599 5596 5592 5587 5583 5578 5574 5569 5565 5560 5556 5552 5548 5544 5539 5534 5530 5525 5521 5517 5512 5508
5652 5651 5649 5647 5644 5641 5638 5635 5632 5628 5623 5618 5617 5615 5610 5609 5606 5605 5603 5600 5597 5594 5590 5586 5581 5577 5572 5568 5563 5558 5553 5549 5545 5540 5536 5531 5526 5521 5516 5512 5507 5503 5498
5649 5648 5646 5644 5642 5639 5636 5633 5630 5627 5622 5616 5612 5610 5608 5606 5601 5599 5597 5594 5592 5588 5585 5581 5576 5571 5567 5562 5557 5552 5547 5542 5537 5532 5527 5522 5517 5512 5507 5502 5497 5492 5487
5647 5646 5644 5642 5640 5637 5635 5631 5627 5624 5621 5617 5611 5606 5601 5597 5596 5594 5592 5588 5585 5583 5579 5575 5571 5566 5561 5556 5551 5546 5540 5535 5529 5524 5518 5513 5508 5502 5497 5491 5486 5480 5475
5645 5644 5643 5641 5639 5636 5633 5630 5626 5622 5619 5616 5611 5607 5603 5597 5592 5588 5585 5582 5578 5576 5573 5570 5565 5561 5556 5551 5545 5539 5533 5527 5522 5516 5510 5504 5498 5492 5486 5480 5474 5468 5462
5645 5644 5642 5640 5638 5635 5632 5628 5624 5620 5617 5614 5610 5606 5602 5599 5594 5588 5583 5577 5572 5569 5566 5563 5560 5555 5550 5545 5539 5533 5526 5520 5514 5508 5502 5495 5489 5482 5475 5468 5461 5455 5449
5647 5644 5641 5639 5637 5633 5630 5626 5622 5618 5615 5611 5608 5604 5599 5595 5591 5587 5581 5573 5567 5562 5558 5556 5553 5549 5544 5538 5533 5526 5520 5513 5507 5500 5493 5486 5479 5472 5465 5457 5450 5443 5436
5644 5642 5639 5637 5634 5631 5628 5624 5620 5616 5612 5609 5605 5600 5596 5591 5587 5583 5578 5572 5565 5558 5554 5550 5546 5543 5537 5531 5525 5519 5512 5506 5499 5492 5485 5478 5470 5462 5455 5447 5439 5431 5424
5642 5640 5637 5635 5632 5628 5625 5622 5618 5614 5609 5605 5601 5596 5591 5587 5582 5577 5572 5567 5562 5556 5549 5545 5540 5535 5530 5524 5518 5511 5505 5498 5490 5483 5476 5468 5460 5453 5444 5436 5429 5421 5414
5640 5638 5636 5633 5630 5627 5623 5620 5616 5611 5607 5602 5597 5593 5588 5583 5577 5572 5566 5561 5555 5549 5543 5539 5532 5527 5521 5515 5510 5503 5497 5490 5482 5474 5467 5459 5451 5443 5435 5427 5419 5412 5405
5638 5637 5634 5631 5628 5625 5621 5618 5614 5609 5605 5600 5595 5590 5585 5579 5573 5568 5562 5556 5550 5544 5538 5533 5526 5519 5514 5508 5501 5495 5488 5481 5474 5466 5458 5450 5441 5433 5426 5418 5410 5403 5396
5635 5633 5631 5628 5626 5622 5619 5616 5612 5607 5603 5598 5593 5588 5583 5576 5570 5564 5558 5552 5545 5539 5533 5526 5520 5512 5505 5499 5493 5486 5479 5472 5464 5457 5449 5441 5432 5424 5416 5409 5401 5394 5386
5632 5630 5628 5626 5623 5620 5616 5613 5609 5604 5599 5595 5590 5585 5580 5574 5568 5562 5555 5548 5541 5533 5526 5519 5512 5505 5497 5491 5484 5478 5471 5463 5456 5448 5439 5432 5424 5415 5407 5400 5393 5385 5378
5630 5627 5624 5621 5618 5616 5613 5610 5605 5601 5596 5591 5586 5581 5576 5571 5566 5560 5553 5545 5537 5528 5521 5513 5505 5498 5490 5483 5477 5470 5462 5455 5448 5439 5430 5424 5416 5408 5399 5391 5384 5376 5369
5625 5623 5620 5617 5615 5613 5611 5606 5602 5597 5592 5587 5582 5576 5572 5566 5561 5555 5549 5542 5535 5526 5517 5508 5500 5492 5486 5479 5470 5462 5452 5445 5439 5433 5422 5415 5408 5399 5391 5383 5376 5369 5361
5620 5618 5616 5614 5611 5609 5606 5602 5597 5594 5588 5584 5578 5572 5567 5561 5555 5549 5542 5535 5528 5522 5516 5507 5496 5488 5481 5474 5465 5454 5444 5435 5427 5422 5413 5406 5398 5390 5383 5375 5368 5361 5353
5614 5613 5611 5610 5607 5604 5601 5597 5592 5587 5583 5578 5574 5569 5563 5556 5550 5543 5535 5527 5519 5513 5507 5501 5493 5485 5476 5467 5458 5448 5438 5427 5417 5410 5402 5394 5389 5381 5376 5368 5360 5352 5344
5608 5607 5606 5604 5602 5598 5594 5591 5586 5580 5576 5571 5567 5563 5557 5551 5545 5537 5529 5520 5512 5504 5498 5491 5484 5476 5467 5459 5449 5438 5427 5418 5409 5402 5392 5383 5378 5372 5367 5359 5351 5343 5336
5602 5601 5598 5598 5596 5594 5589 5585 5580 5575 5569 5564 5559 5555 5550 5545 5538 5531 5522 5514 5505 5497 5489 5481 5473 5465 5457 5449 5440 5430 5420 5409 5400 5391 5384 5374 5366 5359 5355 5351 5343 5335 5328